Theta_e
295 294 294 293 292 292 291 291 291 290 290 290 290 290 290 289 289 289 289 289 289 289 289 289 289 289 289 289 289 289 289 289 289 289 288 288 288 288 288 288 288 289
294 293 292 292 291 291 291 291 290 290 290 290 290 290 290 290 290 290 290 290 290 289 289 289 289 289 289 289 289 289 289 289 289 289 289 288 288 288 288 288 288 288
292 291 291 291 291 290 290 290 290 290 291 291 290 290 291 291 290 290 290 290 290 290 290 290 289 289 289 289 289 289 289 289 289 289 289 289 289 289 289 288 288 288
290 290 290 290 290 290 290 290 290 290 290 290 290 290 290 290 290 290 290 290 290 290 290 290 290 290 290 290 290 289 289 289 289 289 289 289 289 289 289 289 289 289
290 290 290 290 290 290 290 290 290 290 290 290 290 290 289 290 290 290 290 290 290 290 290 290 289 289 289 289 289 289 289 289 289 288 288 288 288 288 288 288 288 288
290 290 290 290 290 290 290 290 290 290 290 290 289 289 289 289 289 289 289 289 289 289 289 289 288 288 288 288 288 288 288 288 288 288 288 288 288 288 287 287 287 287
290 290 290 290 290 290 290 290 289 289 289 289 289 289 289 288 288 288 288 288 288 288 288 288 288 287 287 287 287 287 287 287 287 287 287 287 287 287 287 287 287 287
290 290 290 290 290 289 289 289 289 289 289 289 289 288 288 288 288 288 287 287 287 287 287 287 287 286 286 286 286 286 286 286 286 286 286 286 287 287 287 287 287 287
290 290 290 290 289 289 289 289 289 289 289 288 288 288 288 288 288 288 287 287 287 286 286 286 286 286 286 286 286 286 286 286 286 286 286 286 286 287 287 287 287 287
290 290 290 290 289 289 289 289 289 288 288 288 288 288 288 288 288 287 287 287 287 286 286 286 286 285 285 285 285 285 285 286 286 286 286 286 286 286 286 286 286 287
290 290 289 289 289 289 289 288 288 288 288 288 288 288 288 288 287 287 287 287 286 286 286 285 285 285 285 285 285 285 285 285 285 285 285 286 286 286 286 286 286 286
290 290 289 289 289 288 288 288 288 288 288 288 288 288 288 287 287 287 287 286 286 285 285 285 284 284 284 284 284 284 284 285 285 285 285 285 285 286 286 285 286 286
290 290 289 289 288 288 288 288 288 288 288 288 287 287 287 287 287 287 286 286 285 284 284 284 284 284 284 284 284 284 284 284 285 285 285 285 285 285 285 285 285 284
290 289 288 288 288 288 288 287 287 287 287 287 287 287 287 286 286 286 285 285 284 284 284 283 283 284 284 284 284 284 284 284 284 284 284 284 284 284 284 284 283 283
289 288 288 287 287 287 287 287 287 287 287 287 287 286 286 286 285 285 284 284 283 283 283 283 283 283 283 284 284 284 284 284 284 284 284 284 284 284 284 283 282 281
288 288 287 287 287 287 287 287 287 287 287 286 286 285 285 285 284 284 283 283 283 283 283 283 283 283 283 283 283 283 283 283 283 283 283 283 283 283 282 282 280 280
288 287 287 287 287 287 286 286 286 286 286 286 285 285 284 284 283 283 283 283 283 283 283 283 283 283 283 283 282 282 281 281 281 282 281 281 280 280 280 279 278 278
288 288 287 287 287 286 286 286 286 286 285 285 284 284 284 283 283 283 283 283 283 283 283 283 283 283 283 282 282 281 280 280 280 280 279 279 278 277 277 276 276 276
288 287 287 287 286 286 286 286 286 285 285 284 284 283 283 283 283 283 283 283 283 283 283 283 283 283 282 282 281 281 280 279 279 278 278 277 276 275 275 275 275 275
287 287 287 286 286 285 285 285 285 284 284 283 283 283 283 283 283 283 283 283 283 283 283 283 283 282 282 281 281 280 279 278 278 277 277 276 275 275 275 274 274 274
287 287 286 286 285 285 285 285 284 283 283 283 282 282 282 282 282 283 283 283 283 283 283 283 282 282 281 281 280 279 279 278 277 277 276 275 275 274 274 274 273 272
287 286 286 285 285 285 285 284 283 283 282 282 282 282 282 282 282 282 282 282 282 282 282 282 282 281 280 280 279 279 278 277 276 276 275 275 274 274 274 273 272 271
286 286 285 285 285 285 284 283 283 282 282 282 282 282 282 282 282 282 282 282 282 282 282 282 281 280 280 279 278 278 277 276 276 275 274 274 274 274 273 271 270 270
286 285 285 285 285 284 283 283 282 282 282 281 282 282 282 282 282 282 282 282 281 281 281 281 281 280 279 278 278 277 276 276 275 274 274 274 274 273 272 270 270 270
285 285 285 285 284 283 283 282 282 281 281 281 281 281 282 282 281 282 282 281 281 280 280 280 280 279 278 277 277 276 276 275 275 274 274 274 273 272 271 270 270 270
285 285 285 285 284 283 282 282 281 281 281 281 281 281 281 281 281 281 281 281 280 280 279 279 279 278 278 277 276 276 276 275 274 274 274 273 272 271 270 270 270 270
Wind_Speed
9 10 10 11 12 12 13 14 15 16 17 17 18 18 19 19 18 18 18 18 19 19 19 19 19 20 20 20 21 21 21 21 21 20 20 20 20 19 19 18 18 18
7 8 9 10 10 11 12 13 15 15 16 17 18 19 19 20 20 21 22 22 22 22 22 22 22 22 22 22 22 22 23 23 23 23 23 23 23 22 22 22 21 21
5 6 7 7 8 9 10 11 12 13 14 15 16 17 18 19 21 21 23 24 24 25 25 26 26 26 26 25 25 24 24 24 25 25 25 25 25 25 25 25 24 24
4 5 5 6 7 8 9 10 11 12 13 14 15 16 17 18 19 20 21 22 23 24 26 26 28 28 29 29 29 28 27 26 26 26 26 25 26 27 27 27 28 27
3 4 5 7 8 9 10 11 13 14 15 16 17 18 19 20 21 21 22 22 23 24 24 25 26 27 28 29 30 30 30 30 29 29 29 28 27 27 27 28 29 29
5 6 8 9 10 11 13 14 16 17 18 20 21 21 22 23 24 24 24 24 24 25 25 25 25 26 26 27 28 28 29 30 31 31 32 33 31 30 30 30 31 31
7 9 10 11 12 13 15 16 18 20 20 21 23 23 24 25 25 25 25 25 25 25 25 25 26 26 27 28 29 29 30 30 31 32 33 34 35 35 34 34 35 35
9 11 12 13 14 16 17 19 21 22 23 24 25 26 27 27 27 27 26 26 25 24 24 24 26 27 28 29 30 31 32 33 34 35 36 36 37 37 38 38 39 39
12 14 16 18 19 21 22 24 25 26 27 28 29 29 30 30 31 31 31 30 28 28 28 28 28 29 30 31 32 34 35 35 36 38 39 40 41 41 42 42 43 44
15 17 19 21 23 25 26 28 29 29 30 31 31 31 32 32 33 34 34 34 33 32 33 33 33 34 35 36 37 38 39 40 40 41 41 42 43 43 44 45 46 47
17 19 21 23 25 27 28 29 30 30 31 32 32 33 33 34 34 34 34 34 34 35 36 37 38 39 40 41 42 42 43 43 44 44 44 44 44 45 45 46 47 48
19 21 23 25 27 28 29 29 30 31 32 32 33 34 35 35 35 35 34 34 35 36 38 39 41 42 43 44 44 44 44 44 44 45 45 46 46 46 47 47 48 49
20 22 24 26 28 28 29 29 30 31 32 33 34 35 36 36 36 35 34 35 36 38 39 41 42 43 43 43 43 43 44 44 45 45 46 46 47 47 48 49 49 50
21 23 25 26 26 27 28 29 30 31 33 34 35 36 36 36 35 35 35 37 38 39 40 41 41 42 42 41 42 42 43 45 45 46 47 48 48 49 49 49 49 49
21 23 24 25 25 26 28 29 31 32 33 34 35 35 35 34 34 36 37 39 40 40 40 41 41 40 40 41 42 43 44 45 46 47 48 49 50 50 50 49 48 47
22 23 24 24 26 27 29 30 31 33 33 33 33 33 33 34 36 37 39 40 40 40 40 40 40 40 40 41 42 43 44 46 47 48 48 49 50 51 51 50 47 46
24 24 24 26 27 28 30 31 32 32 32 32 32 32 34 35 37 38 39 39 40 40 40 40 40 40 41 41 42 42 43 45 46 47 48 48 48 49 49 48 47 45
26 26 26 27 29 30 31 31 31 31 31 32 32 33 35 36 37 38 38 38 39 39 40 40 40 40 41 41 42 42 42 43 44 45 46 46 46 46 46 45 44 43
27 27 27 29 30 31 31 31 31 31 31 32 33 35 36 36 36 37 37 38 38 39 40 40 40 40 41 41 42 42 41 41 42 44 44 44 43 43 43 42 41 41
27 28 29 30 31 31 31 31 30 31 31 33 34 35 35 35 36 37 37 37 38 39 40 40 40 40 40 41 41 42 41 41 41 42 42 42 42 41 41 40 38 38
28 29 30 31 31 31 31 30 30 31 32 34 35 35 35 35 36 37 37 37 38 38 39 40 39 39 40 41 41 41 40 40 41 42 41 41 41 40 39 38 37 36
29 30 30 31 31 31 30 30 31 32 34 35 34 34 34 35 35 36 36 37 38 38 39 39 39 39 40 40 40 40 40 40 41 41 41 40 40 39 37 36 34 33
29 30 30 31 31 31 30 30 32 33 34 34 34 33 34 34 35 36 36 37 38 38 39 40 39 39 39 40 39 39 39 39 39 40 40 39 39 37 34 32 31 30
29 30 30 31 31 31 31 31 32 33 33 33 33 33 33 34 35 35 36 36 37 37 38 39 40 39 38 39 38 36 36 37 38 38 38 38 37 34 31 30 30 31
29 30 30 31 31 31 31 32 33 33 33 32 32 32 33 34 34 35 36 36 36 37 37 38 40 39 38 37 36 34 33 34 36 37 37 36 34 32 31 32 34 34
28 29 31 31 31 31 32 33 33 32 32 31 31 31 32 33 33 35 36 36 36 36 36 37 38 39 38 36 34 32 31 31 32 34 34 32 32 33 35 36 36 36
Wind_Direction
27 24 21 18 17 17 15 13 11 9 7 6 4 3 1 358 355 352 351 350 348 346 345 344 342 341 339 338 338 338 338 337 337 337 337 337 336 335 334 332 332 330
20 19 18 13 11 9 6 5 2 358 356 354 352 350 347 344 342 340 338 337 337 336 336 336 335 334 333 332 331 330 330 329 328 328 328 329 329 328 328 326 326 325
24 19 13 5 2 359 355 353 349 344 341 338 336 333 331 330 328 327 325 325 325 325 325 326 327 327 327 327 326 325 324 323 322 322 322 323 322 321 322 321 320 320
22 12 4 357 353 348 343 340 336 332 330 328 326 324 321 319 317 315 315 314 315 315 315 316 317 318 319 319 319 319 320 320 319 318 317 317 317 316 317 316 315 315
12 360 355 348 343 340 337 333 330 329 328 328 326 324 322 320 318 316 315 313 314 314 314 314 314 314 314 313 313 314 314 315 315 315 314 313 313 312 312 312 311 311
357 348 346 341 338 337 333 330 327 325 325 325 324 325 324 323 322 320 318 317 317 317 316 316 316 315 314 313 313 312 312 312 312 312 311 311 311 310 310 309 308 308
343 338 335 332 331 329 326 325 324 324 324 324 324 325 323 323 323 322 321 320 318 317 317 316 315 314 314 313 313 312 312 311 310 310 309 309 308 308 308 307 306 305
328 328 327 327 327 327 326 326 327 327 327 326 326 325 325 324 324 324 324 322 320 318 316 314 313 312 312 311 311 310 310 310 310 309 308 307 306 306 305 305 304 303
327 328 328 328 327 327 327 327 328 328 327 326 325 325 324 324 324 324 324 322 321 319 317 316 314 313 312 312 311 310 309 309 308 308 307 306 305 305 304 304 303 301
326 327 326 325 325 325 325 325 325 324 324 323 322 322 322 322 322 322 321 320 319 318 317 317 316 315 315 314 313 312 311 309 308 306 305 304 303 303 302 302 301 300
322 322 322 322 322 322 321 321 320 319 319 318 318 317 317 317 317 317 317 316 316 316 316 317 317 316 315 314 314 312 311 310 308 307 305 304 303 302 301 301 300 298
317 318 319 319 318 317 316 316 315 314 314 313 313 313 312 312 313 313 313 313 313 314 314 315 315 314 314 313 312 312 311 309 308 307 306 305 304 303 302 301 299 298
313 314 315 314 313 312 311 310 309 309 309 309 309 309 310 310 311 311 311 311 312 312 312 312 312 311 311 311 311 311 310 309 308 307 306 305 304 302 301 299 298 296
309 310 310 309 309 308 307 307 307 307 307 307 307 308 309 309 309 310 310 310 311 311 310 310 310 310 311 311 311 310 309 309 308 308 307 306 304 303 301 299 298 296
307 309 308 309 308 308 307 306 306 306 306 306 307 307 307 308 309 309 310 310 310 310 310 310 311 312 312 312 312 312 311 310 310 309 309 308 306 304 302 301 300 299
308 309 309 310 310 309 308 307 307 306 306 306 306 306 307 308 309 309 309 309 310 310 311 312 312 313 314 315 315 315 315 314 313 312 311 309 308 306 304 304 304 303
308 309 310 311 311 310 309 308 307 306 306 306 306 307 307 308 308 308 309 309 310 311 312 313 314 316 317 317 318 319 318 317 316 314 313 311 310 309 308 308 308 307
307 309 310 310 311 310 309 308 307 306 306 306 306 307 307 307 308 308 309 311 312 313 314 314 316 318 319 320 320 320 320 319 317 315 314 313 312 311 311 310 310 309
306 308 309 310 310 310 308 307 307 306 306 305 305 306 306 307 308 309 311 312 313 314 315 316 317 319 321 321 321 322 322 321 318 316 314 313 312 311 311 311 311 311
305 307 308 309 310 309 308 307 306 305 305 305 305 306 307 308 310 311 313 314 315 316 316 316 319 321 322 322 322 323 324 322 318 316 315 314 313 313 313 313 313 314
305 307 308 309 309 309 307 306 305 305 305 305 306 307 308 310 312 313 314 316 316 316 316 317 321 323 323 323 324 326 325 322 319 317 316 314 314 314 314 313 314 315
305 307 309 309 309 308 306 305 306 306 306 306 307 308 310 312 313 314 315 316 317 317 318 319 322 324 324 325 327 328 326 322 319 318 316 315 314 314 313 313 316 317
306 308 309 309 308 307 305 305 306 306 306 306 307 309 311 313 313 315 316 316 317 318 319 320 323 326 326 327 329 329 326 322 319 317 314 313 312 312 313 315 318 321
306 308 309 308 307 305 305 305 306 306 306 306 308 310 311 312 314 315 316 317 318 319 321 322 324 327 328 328 329 329 325 321 318 315 312 311 312 313 316 319 322 325
305 307 307 307 305 304 305 306 306 306 306 307 308 310 311 312 314 315 315 317 319 320 322 324 325 327 328 328 328 327 324 319 316 313 311 310 313 317 320 323 323 322
304 306 306 305 304 304 306 306 306 306 305 307 308 309 311 312 314 315 315 317 319 321 323 325 325 326 328 328 326 324 322 318 314 311 310 313 319 322 322 320 318 318